CW7710 Weather Reports


time (UTC)temp
F
wind
direction
speed
knots
gust
knots
rain 1hr
in
rain 24hr
in
rain mn
in
humidity
%
barometer
mb
20260504214330 60 16 12.2 0.0 0.00 0.00 0.00 38 1013.6
20260504213337 59 4 9.6 0.0 0.00 0.00 0.00 40 1013.6
20260504212321 59 1 12.2 0.0 0.00 0.00 0.00 40 1013.8
20260504211329 59 30 13.9 0.0 0.00 0.00 0.00 39 1013.8
20260504210337 59 5 13.0 0.0 0.00 0.00 0.00 41 1013.8
20260504205405 58 39 14.8 0.0 0.00 0.00 0.00 40 1014.5
20260504204329 58 9 13.9 0.0 0.00 0.00 0.00 41 1014.5
20260504203332 57 354 15.6 0.0 0.00 0.00 0.00 43 1014.5
20260504202336 56 8 15.6 0.0 0.00 0.00 0.00 43 1013.9
20260504201339 56 359 16.5 0.0 0.00 0.00 0.00 42 1014.4
20260504200327 58 3 14.8 0.0 0.00 0.00 0.00 42 1014.4
20260504195330 57 14 14.8 0.0 0.00 0.00 0.00 42 1014.6
20260504194334 58 28 12.2 0.0 0.00 0.00 0.00 41 1014.5
20260504193342 58 29 10.4 0.0 0.00 0.00 0.00 41 1014.6
20260504192330 58 34 11.3 0.0 0.00 0.00 0.00 42 1014.6
20260504191334 59 35 8.7 0.0 0.00 0.00 0.00 40 1014.3
20260504190341 59 349 7.0 0.0 0.00 0.00 0.00 42 1014.2
20260504185345 58 21 7.8 0.0 0.00 0.00 0.00 42 1014.0
20260504184333 57 346 7.8 0.0 0.00 0.00 0.00 42 1014.0
20260504183338 58 32 7.0 0.0 0.00 0.00 0.00 43 1014.1
20260504182345 57 42 7.8 0.0 0.00 0.00 0.00 43 1014.1
20260504181328 57 345 5.2 0.0 0.00 0.00 0.00 44 1014.1
20260504180336 57 340 6.1 0.0 0.00 0.00 0.00 43 1013.4
20260504175344 57 35 7.8 0.0 0.00 0.00 0.00 42 1014.4
20260504174328 57 357 7.0 0.0 0.00 0.00 0.00 43 1014.4
20260504173333 57 332 8.7 0.0 0.00 0.00 0.00 44 1014.5
20260504172341 57 30 7.0 0.0 0.00 0.00 0.00 44 1014.5
20260504171325 56 23 5.2 0.0 0.00 0.00 0.00 45 1014.7
20260504170328 56 332 7.8 0.0 0.00 0.00 0.00 46 1014.8
20260504160340 54 12 10.4 0.0 0.00 0.00 0.00 47 1015.4
20260504150328 53 107 3.5 0.0 0.00 0.00 0.00 47 1015.6
20260504140340 51 86 8.7 0.0 0.00 0.00 0.00 50 1013.2
20260504130334 46 311 10.4 0.0 0.00 0.00 0.00 58 1015.1
20260504110348 50 18 17.4 0.0 0.00 0.00 0.00 48 1013.1
20260504100338 44 34 4.3 0.0 0.00 0.00 0.00 69 1012.0
20260504081337 44 138 5.2 0.0 0.00 0.00 0.00 70 1011.2
20260504080341 41 176 4.3 0.0 0.00 0.00 0.00 69 1010.9
20260504070327 45 63 1.7 0.0 0.00 0.00 0.00 61 1011.5
20260504050337 53 269 3.5 0.0 0.00 0.00 0.00 49 1011.4
20260504045400 53 257 3.5 0.0 0.00 0.00 0.00 49 1010.5
20260504044326 54 254 3.5 0.0 0.00 0.00 0.00 47 1010.4
20260504043331 55 229 4.3 0.0 0.00 0.00 0.00 44 1010.9
20260504042335 56 266 5.2 0.0 0.00 0.00 0.00 45 1010.8
20260504041339 56 264 5.2 0.0 0.00 0.00 0.00 44 1010.8
20260504040327 53 275 2.6 0.0 0.00 0.00 0.00 48 1010.9
20260504035351 54 196 2.6 0.0 0.00 0.00 0.00 47 1010.4
20260504034335 54 176 4.3 0.0 0.00 0.00 0.00 48 1010.2
20260504033339 54 181 5.2 0.0 0.00 0.00 0.00 48 1010.1
20260504032326 55 181 2.6 0.0 0.00 0.00 0.00 46 1010.0
20260504031353 56 200 1.7 0.0 0.00 0.00 0.00 45 1009.6
20260504030336 56 200 2.6 0.0 0.00 0.00 0.00 44 1010.4
20260504025339 61 194 0.9 0.0 0.00 0.00 0.00 38 1009.7
20260504024328 65 37 1.7 0.0 0.00 0.00 0.00 33 1009.5
20260504023332 67 30 3.5 0.0 0.00 0.00 0.00 32 1009.5
20260504022336 68 24 3.5 0.0 0.00 0.00 0.00 30 1009.3
20260504021341 70 30 3.5 0.0 0.00 0.00 0.00 29 1009.7
20260504020329 71 16 3.5 0.0 0.00 0.00 0.00 28 1010.6
20260504015354 71 26 4.3 0.0 0.00 0.00 0.00 27 1009.1
20260504014338 72 21 5.2 0.0 0.00 0.00 0.00 27 1009.5
20260504013403 72 27 6.1 0.0 0.00 0.00 0.00 26 1009.6
20260504012346 72 7 8.7 0.0 0.00 0.00 0.00 26 1009.6
20260504011334 73 16 8.7 0.0 0.00 0.00 0.00 26 1009.6
20260504010338 74 17 7.8 0.0 0.00 0.00 0.00 24 1010.5
20260504005327 74 9 8.7 0.0 0.00 0.00 0.00 24 1009.7
20260504004330 75 38 9.6 0.0 0.00 0.00 0.00 23 1009.4
20260504003354 74 333 4.3 0.0 0.00 0.00 0.00 23 1009.5
20260504002341 74 11 5.2 0.0 0.00 0.00 0.00 22 1009.9
20260504001326 73 269 7.8 0.0 0.00 0.00 0.00 24 1009.9
20260504000334 73 263 7.0 0.0 0.00 0.00 0.00 26 1009.9
20260503235338 74 260 6.1 0.0 0.00 0.00 0.00 23 1010.1
20260503234327 73 241 6.1 0.0 0.00 0.00 0.00 26 1009.6
20260503233331 74 242 7.0 0.0 0.00 0.00 0.00 24 1010.3
20260503232355 75 233 4.3 0.0 0.00 0.00 0.00 23 1010.3
20260503231337 75 205 5.2 0.0 0.00 0.00 0.00 23 1010.4
20260503230348 75 218 2.6 0.0 0.00 0.00 0.00 23 1010.6
20260503225330 74 71 4.3 0.0 0.00 0.00 0.00 24 1010.5
20260503224354 74 266 4.3 0.0 0.00 0.00 0.00 26 1010.5
20260503223337 73 291 4.3 0.0 0.00 0.00 0.00 28 1011.0
20260503222326 74 304 5.2 0.0 0.00 0.00 0.00 25 1010.9
20260503221332 75 318 5.2 0.0 0.00 0.00 0.00 25 1011.0
20260503220337 74 286 3.5 0.0 0.00 0.00 0.00 24 1011.3
20260503215340 75 283 10.4 0.0 0.00 0.00 0.00 27 1011.7